CW8248 Weather Reports


time (UTC)temp
C
wind
direction
speed
KPH
gust
KPH
rain 1hr
cm
rain 24hr
cm
rain mn
cm
humidity
%
barometer
mb
20260508131012 11 301 9.7 22.5 0.00 0.00 0.00 60 1017.1
20260508130511 11 191 8.0 22.5 0.00 0.00 0.00 60 1017.0
20260508130011 11 191 8.0 19.3 0.00 0.00 0.00 60 1016.9
20260508125511 11 191 4.8 20.9 0.00 0.00 0.00 59 1016.9
20260508125011 11 281 3.2 27.4 0.00 0.00 0.00 60 1016.9
20260508124511 11 191 4.8 27.4 0.00 0.00 0.00 60 1016.9
20260508124010 11 271 6.4 17.7 0.00 0.00 0.00 60 1016.9
20260508123513 11 236 6.4 24.1 0.00 0.00 0.00 60 1016.8
20260508123010 11 264 11.3 24.1 0.00 0.00 0.00 60 1016.9
20260508122513 11 246 8.0 24.1 0.00 0.00 0.00 61 1016.9
20260508122008 11 251 8.0 22.5 0.00 0.00 0.00 61 1016.8
20260508121509 11 241 9.7 25.7 0.00 0.00 0.00 60 1016.8
20260508121008 11 265 9.7 25.7 0.00 0.00 0.00 60 1016.8
20260508120507 11 191 11.3 20.9 0.00 0.00 0.00 60 1016.8
20260508120009 11 246 9.7 22.5 0.00 0.00 0.00 60 1016.8
20260508115508 11 263 11.3 19.3 0.00 0.00 0.00 60 1016.7
20260508115007 11 263 9.7 19.3 0.00 0.00 0.00 60 1016.7
20260508114507 11 236 6.4 25.7 0.00 0.00 0.00 61 1016.7
20260508114006 10 300 4.8 25.7 0.00 0.00 0.00 63 1016.7
20260508113506 9 304 6.4 20.9 0.00 0.00 0.00 63 1016.7
20260508113010 8 191 3.2 14.5 0.00 0.00 0.00 60 1016.7
20260508112503 9 267 4.8 14.5 0.00 0.00 0.00 62 1016.6
20260508112003 8 191 1.6 12.9 0.00 0.00 0.00 62 1016.5
20260508111503 8 254 1.6 14.5 0.00 0.00 0.00 59 1016.5
20260508111005 8 191 1.6 14.5 0.00 0.00 0.00 59 1016.5
20260508110501 8 47 1.6 11.3 0.00 0.00 0.00 58 1016.5
20260508110006 8 63 1.6 6.4 0.00 0.00 0.00 59 1016.4
20260508105501 8 360 1.6 6.4 0.00 0.00 0.00 58 1016.3
20260508105001 8 9 1.6 9.7 0.00 0.00 0.00 59 1016.3
20260508104501 8 11 1.6 9.7 0.00 0.00 0.00 59 1016.4
20260508104100 8 44 3.2 9.7 0.00 0.00 0.00 58 1016.4
20260508103602 8 3 3.2 11.3 0.00 0.00 0.00 58 1016.4
20260508103100 8 37 1.6 11.3 0.00 0.00 0.00 57 1016.3
20260508102600 8 6 1.6 8.0 0.00 0.00 0.00 58 1016.4
20260508102059 8 5 1.6 11.3 0.00 0.00 0.00 58 1016.4
20260508101600 8 11 3.2 11.3 0.00 0.00 0.00 57 1016.4
20260508101058 8 40 3.2 9.7 0.00 0.00 0.00 57 1016.3
20260508100600 8 91 1.6 9.7 0.00 0.00 0.00 58 1016.4
20260508100059 8 33 1.6 6.4 0.00 0.00 0.00 57 1016.4
20260508095557 8 2 1.6 11.3 0.00 0.00 0.00 59 1016.3
20260508095056 8 353 3.2 11.3 0.00 0.00 0.00 59 1016.3
20260508094615 8 2 3.2 11.3 0.00 0.00 0.00 58 1016.3
20260508094055 8 19 1.6 9.7 0.00 0.00 0.00 59 1016.4
20260508093554 8 6 1.6 8.0 0.00 0.00 0.00 59 1016.3
20260508093053 8 13 3.2 8.0 0.00 0.00 0.00 58 1016.3
20260508092553 8 33 1.6 6.4 0.00 0.00 0.00 57 1016.2
20260508092052 8 33 1.6 9.7 0.00 0.00 0.00 55 1016.2
20260508091551 8 358 0.0 9.7 0.00 0.00 0.00 56 1016.2
20260508091051 8 19 1.6 6.4 0.00 0.00 0.00 56 1016.1
20260508090549 8 5 1.6 6.4 0.00 0.00 0.00 57 1016.2
20260508090052 8 7 1.6 6.4 0.00 0.00 0.00 57 1016.1
20260508085546 9 7 1.6 6.4 0.00 0.00 0.00 57 1016.1
20260508085046 9 5 1.6 6.4 0.00 0.00 0.00 56 1016.1
20260508084545 9 67 0.0 8.0 0.00 0.00 0.00 54 1016.1
20260508084044 9 44 1.6 8.0 0.00 0.00 0.00 56 1016.1
20260508083546 10 258 0.0 4.8 0.00 0.00 0.00 54 1016.1
20260508083042 10 14 0.0 4.8 0.00 0.00 0.00 53 1016.1
20260508082540 10 349 0.0 6.4 0.00 0.00 0.00 53 1016.1
20260508082040 10 349 1.6 6.4 0.00 0.00 0.00 53 1016.0
20260508081559 10 325 0.0 3.2 0.00 0.00 0.00 54 1016.1
20260508081037 11 191 0.0 6.4 0.00 0.00 0.00 56 1016.0
20260508080536 11 191 0.0 12.9 0.00 0.00 0.00 56 1016.1
20260508080036 11 254 0.0 11.3 0.00 0.00 0.00 56 1016.0
20260508075535 11 266 0.0 14.5 0.00 0.00 0.00 54 1016.0
20260508075036 11 240 3.2 11.3 0.00 0.00 0.00 54 1016.0
20260508074534 11 260 0.0 12.9 0.00 0.00 0.00 50 1016.0
20260508074034 12 262 6.4 12.9 0.00 0.00 0.00 47 1016.0
20260508073532 12 274 1.6 14.5 0.00 0.00 0.00 47 1016.0
20260508073030 12 271 3.2 14.5 0.00 0.00 0.00 45 1016.0
20260508072529 12 273 3.2 12.9 0.00 0.00 0.00 44 1016.0
20260508072029 12 269 3.2 19.3 0.00 0.00 0.00 46 1016.0
20260508071539 12 191 0.0 19.3 0.00 0.00 0.00 45 1016.0
20260508071026 12 275 1.6 8.0 0.00 0.00 0.00 47 1016.0
20260508070528 12 191 0.0 6.4 0.00 0.00 0.00 47 1015.9
20260508070025 12 265 0.0 8.0 0.00 0.00 0.00 50 1016.0
20260508065525 12 267 0.0 8.0 0.00 0.00 0.00 47 1015.9
20260508065024 13 264 0.0 8.0 0.00 0.00 0.00 44 1015.9
20260508064524 13 191 0.0 6.4 0.00 0.00 0.00 43 1015.8
20260508064024 13 295 0.0 9.7 0.00 0.00 0.00 43 1015.9
20260508063524 13 268 0.0 9.7 0.00 0.00 0.00 43 1015.9
20260508063032 13 334 0.0 6.4 0.00 0.00 0.00 45 1015.9
20260508062524 12 191 0.0 6.4 0.00 0.00 0.00 46 1015.9
20260508062024 12 191 0.0 4.8 0.00 0.00 0.00 46 1015.9
20260508061523 12 191 0.0 8.0 0.00 0.00 0.00 46 1015.9
20260508061024 13 267 0.0 8.0 0.00 0.00 0.00 45 1015.8
20260508060522 13 219 0.0 8.0 0.00 0.00 0.00 43 1015.9
20260508060022 13 191 0.0 6.4 0.00 0.00 0.00 46 1016.0
20260508055523 13 262 0.0 9.7 0.00 0.00 0.00 44 1016.0
20260508055023 13 256 1.6 9.7 0.00 0.00 0.00 44 1015.9
20260508054523 13 269 0.0 11.3 0.00 0.00 0.00 43 1015.9
20260508054022 13 273 1.6 8.0 0.00 0.00 0.00 43 1015.8
20260508053522 13 191 0.0 8.0 0.00 0.00 0.00 44 1015.9
20260508053024 13 260 1.6 8.0 0.00 0.00 0.00 43 1015.9
20260508052526 13 213 0.0 6.4 0.00 0.00 0.00 44 1016.0
20260508052022 13 357 0.0 8.0 0.00 0.00 0.00 43 1016.0
20260508051522 13 3 0.0 8.0 0.00 0.00 0.00 42 1015.9
20260508051022 13 3 1.6 8.0 0.00 0.00 0.00 45 1016.0
20260508050522 13 352 3.2 8.0 0.00 0.00 0.00 45 1016.0
20260508050021 13 343 1.6 4.8 0.00 0.00 0.00 45 1015.9
20260508045522 13 318 0.0 4.8 0.00 0.00 0.00 45 1015.8
20260508045021 13 333 0.0 4.8 0.00 0.00 0.00 43 1015.8
20260508044527 13 330 0.0 4.8 0.00 0.00 0.00 43 1015.8
20260508044021 13 309 0.0 6.4 0.00 0.00 0.00 43 1015.8
20260508043521 13 309 0.0 6.4 0.00 0.00 0.00 44 1015.7
20260508043022 13 320 0.0 4.8 0.00 0.00 0.00 42 1015.6
20260508042522 13 319 1.6 4.8 0.00 0.00 0.00 41 1015.7
20260508042020 14 191 0.0 14.5 0.00 0.00 0.00 40 1015.6
20260508041519 14 257 3.2 14.5 0.00 0.00 0.00 39 1015.6
20260508041020 15 260 3.2 8.0 0.00 0.00 0.00 40 1015.5
20260508040519 15 191 0.0 11.3 0.00 0.00 0.00 38 1015.5
20260508040019 15 270 1.6 11.3 0.00 0.00 0.00 39 1015.5
20260508035521 15 269 0.0 3.2 0.00 0.00 0.00 36 1015.4
20260508035019 15 269 0.0 8.0 0.00 0.00 0.00 35 1015.3
20260508034519 15 269 0.0 9.7 0.00 0.00 0.00 36 1015.3
20260508034019 16 191 3.2 9.7 0.00 0.00 0.00 33 1015.2
20260508033519 15 264 3.2 11.3 0.00 0.00 0.00 33 1015.2
20260508033022 15 265 3.2 9.7 0.00 0.00 0.00 34 1015.2
20260508032519 15 191 0.0 9.7 0.00 0.00 0.00 34 1015.1
20260508032019 15 275 0.0 9.7 0.00 0.00 0.00 32 1015.1
20260508031518 15 191 0.0 3.2 0.00 0.00 0.00 32 1015.0
20260508031018 16 191 0.0 4.8 0.00 0.00 0.00 31 1014.9
20260508030518 16 191 0.0 4.8 0.00 0.00 0.00 28 1015.0
20260508030018 16 191 0.0 3.2 0.00 0.00 0.00 31 1015.0
20260508025520 16 191 0.0 6.4 0.00 0.00 0.00 29 1015.0
20260508025017 16 191 0.0 16.1 0.00 0.00 0.00 29 1015.0
20260508024531 17 247 6.4 16.1 0.00 0.00 0.00 28 1015.0
20260508024018 17 300 4.8 16.1 0.00 0.00 0.00 29 1015.0
20260508023518 17 262 1.6 16.1 0.00 0.00 0.00 28 1015.0
20260508023024 17 242 4.8 17.7 0.00 0.00 0.00 26 1014.9
20260508022517 17 250 3.2 22.5 0.00 0.00 0.00 26 1014.9
20260508022017 17 254 8.0 22.5 0.00 0.00 0.00 26 1014.9
20260508021517 18 298 1.6 17.7 0.00 0.00 0.00 26 1014.8
20260508021016 18 271 1.6 9.7 0.00 0.00 0.00 26 1014.8
20260508020516 18 267 0.0 17.7 0.00 0.00 0.00 26 1014.8
20260508020016 18 253 6.4 17.7 0.00 0.00 0.00 24 1014.8
20260508015516 18 243 3.2 12.9 0.00 0.00 0.00 24 1014.8
20260508015016 18 254 3.2 16.1 0.00 0.00 0.00 21 1014.9
20260508014516 18 267 3.2 16.1 0.00 0.00 0.00 21 1014.9
20260508014016 18 251 3.2 14.5 0.00 0.00 0.00 22 1014.9
20260508013519 18 191 6.4 14.5 0.00 0.00 0.00 23 1014.9
20260508013015 19 264 3.2 17.7 0.00 0.00 0.00 20 1014.9
20260508012515 19 250 6.4 12.9 0.00 0.00 0.00 20 1014.9
20260508012016 19 229 3.2 14.5 0.00 0.00 0.00 20 1014.9
20260508011515 19 249 6.4 12.9 0.00 0.00 0.00 22 1015.0
20260508011014 19 265 3.2 14.5 0.00 0.00 0.00 21 1015.0
20260508010514 19 191 6.4 14.5 0.00 0.00 0.00 20 1015.0
20260508010020 20 191 6.4 12.9 0.00 0.00 0.00 22 1015.0
20260508005515 20 266 3.2 17.7 0.00 0.00 0.00 20 1015.0
20260508005017 20 317 4.8 17.7 0.00 0.00 0.00 23 1015.0
20260508004514 20 272 4.8 17.7 0.00 0.00 0.00 19 1015.0
20260508004017 20 271 6.4 20.9 0.00 0.00 0.00 20 1014.9
20260508003513 20 242 8.0 24.1 0.00 0.00 0.00 20 1014.8
20260508003014 20 191 8.0 24.1 0.00 0.00 0.00 18 1015.0
20260508002515 20 266 4.8 14.5 0.00 0.00 0.00 17 1014.9
20260508002013 21 256 3.2 20.9 0.00 0.00 0.00 19 1014.9
20260508001513 21 273 9.7 20.9 0.00 0.00 0.00 19 1014.9
20260508001013 20 191 8.0 14.5 0.00 0.00 0.00 20 1015.0
20260508000511 21 269 3.2 16.1 0.00 0.00 0.00 23 1014.9
20260508000012 21 248 3.2 14.5 0.00 0.00 0.00 21 1014.9
20260507235511 22 248 8.0 14.5 0.00 0.00 0.00 16 1014.8
20260507235011 22 247 4.8 17.7 0.00 0.00 0.00 19 1014.8
20260507234517 22 257 8.0 19.3 0.00 0.00 0.00 19 1014.8
20260507234010 22 244 4.8 19.3 0.00 0.00 0.00 13 1014.9
20260507233510 22 261 4.8 20.9 0.00 0.00 0.00 17 1014.9
20260507233028 21 252 3.2 20.9 0.00 0.00 0.00 19 1014.9
20260507232511 22 244 8.0 24.1 0.00 0.00 0.00 20 1014.8
20260507232010 22 265 12.9 24.1 0.00 0.00 0.00 20 1014.9
20260507231509 22 247 12.9 27.4 0.00 0.00 0.00 16 1014.9
20260507231008 22 230 14.5 27.4 0.00 0.00 0.00 12 1015.1
20260507230508 22 260 11.3 24.1 0.00 0.00 0.00 18 1015.0
20260507230006 22 255 16.1 24.1 0.00 0.00 0.00 14 1015.1
20260507225506 21 255 8.0 24.1 0.00 0.00 0.00 17 1015.1
20260507225006 22 240 9.7 25.7 0.00 0.00 0.00 17 1015.1
20260507224506 21 250 12.9 30.6 0.00 0.00 0.00 20 1015.2
20260507224009 21 246 17.7 33.8 0.00 0.00 0.00 17 1015.2
20260507223505 22 191 19.3 33.8 0.00 0.00 0.00 15 1015.2
20260507223004 21 243 19.3 33.8 0.00 0.00 0.00 18 1015.2
20260507222506 22 271 19.3 30.6 0.00 0.00 0.00 20 1015.3
20260507222003 22 229 17.7 30.6 0.00 0.00 0.00 19 1015.4
20260507221505 21 264 19.3 33.8 0.00 0.00 0.00 19 1015.4
20260507221003 22 244 16.1 33.8 0.00 0.00 0.00 21 1015.5
20260507220501 22 262 17.7 33.8 0.00 0.00 0.00 24 1015.5
20260507220002 22 227 20.9 30.6 0.00 0.00 0.00 22 1015.5
20260507215601 21 247 16.1 37.0 0.00 0.00 0.00 34 1015.6
20260507215059 22 250 17.7 37.0 0.00 0.00 0.00 31 1015.7
20260507214607 22 248 17.7 29.0 0.00 0.00 0.00 24 1015.7
20260507214102 22 260 16.1 30.6 0.00 0.00 0.00 29 1015.8
20260507213559 22 240 16.1 30.6 0.00 0.00 0.00 30 1015.8
20260507213101 21 254 14.5 30.6 0.00 0.00 0.00 28 1015.9
20260507212558 22 191 14.5 29.0 0.00 0.00 0.00 30 1015.9
20260507212102 22 238 16.1 29.0 0.00 0.00 0.00 27 1015.8
20260507211601 21 233 11.3 29.0 0.00 0.00 0.00 32 1015.9
20260507211056 21 292 9.7 25.7 0.00 0.00 0.00 30 1016.0
20260507210556 20 242 9.7 27.4 0.00 0.00 0.00 29 1016.1
20260507205553 21 249 9.7 25.7 0.00 0.00 0.00 31 1016.2
20260507205052 21 191 8.0 33.8 0.00 0.00 0.00 33 1016.3
20260507204552 21 265 9.7 22.5 0.00 0.00 0.00 35 1016.3
20260507204055 21 243 8.0 19.3 0.00 0.00 0.00 36 1016.3
20260507203551 20 258 4.8 25.7 0.00 0.00 0.00 35 1016.4
20260507203103 20 273 11.3 27.4 0.00 0.00 0.00 35 1016.4
20260507202548 20 191 12.9 27.4 0.00 0.00 0.00 40 1016.5
20260507202048 20 257 11.3 29.0 0.00 0.00 0.00 38 1016.6
20260507201556 19 191 14.5 30.6 0.00 0.00 0.00 38 1016.7
20260507201047 19 274 16.1 29.0 0.00 0.00 0.00 40 1016.8
20260507200546 19 263 14.5 33.8 0.00 0.00 0.00 42 1016.8
20260507195545 20 250 17.7 27.4 0.00 0.00 0.00 43 1017.0
20260507195045 20 246 19.3 37.0 0.00 0.00 0.00 42 1017.0
20260507194544 20 237 16.1 30.6 0.00 0.00 0.00 44 1017.1
20260507194042 20 242 17.7 33.8 0.00 0.00 0.00 45 1017.0
20260507193542 19 237 17.7 33.8 0.00 0.00 0.00 44 1017.0
20260507193046 19 257 14.5 25.7 0.00 0.00 0.00 41 1017.1
20260507192540 19 240 17.7 32.2 0.00 0.00 0.00 43 1017.1
20260507192040 19 250 20.9 37.0 0.00 0.00 0.00 36 1017.2
20260507191538 18 246 22.5 37.0 0.00 0.00 0.00 39 1017.3
20260507191037 18 245 20.9 38.6 0.00 0.00 0.00 36 1017.3
20260507190540 18 254 27.4 41.8 0.00 0.00 0.00 37 1017.2
20260507190037 18 262 24.1 41.8 0.00 0.00 0.00 38 1017.2
20260507185539 18 262 22.5 37.0 0.00 0.00 0.00 37 1017.2
20260507185034 18 249 24.1 37.0 0.00 0.00 0.00 38 1017.3
20260507184534 18 236 19.3 37.0 0.00 0.00 0.00 38 1017.3
20260507184035 18 271 20.9 37.0 0.00 0.00 0.00 41 1017.4
20260507183531 17 233 22.5 35.4 0.00 0.00 0.00 40 1017.3
20260507183029 17 260 14.5 35.4 0.00 0.00 0.00 54 1017.5
20260507182528 17 254 24.1 40.2 0.00 0.00 0.00 44 1017.6
20260507182027 17 261 25.7 38.6 0.00 0.00 0.00 42 1017.6
20260507181530 17 277 25.7 38.6 0.00 0.00 0.00 44 1017.7
20260507181025 17 250 22.5 40.2 0.00 0.00 0.00 44 1017.5
20260507180525 17 191 19.3 35.4 0.00 0.00 0.00 43 1017.7
20260507180027 17 230 20.9 35.4 0.00 0.00 0.00 46 1017.6
20260507175523 17 226 22.5 30.6 0.00 0.00 0.00 49 1017.7
20260507175020 17 265 17.7 29.0 0.00 0.00 0.00 50 1017.8
20260507174520 16 269 17.7 30.6 0.00 0.00 0.00 51 1017.8
20260507174017 16 247 16.1 35.4 0.00 0.00 0.00 53 1017.8
20260507173516 16 230 24.1 41.8 0.00 0.00 0.00 49 1017.8
20260507173029 16 235 19.3 37.0 0.00 0.00 0.00 50 1017.9
20260507172515 15 239 22.5 37.0 0.00 0.00 0.00 52 1018.0
20260507172014 16 265 19.3 35.4 0.00 0.00 0.00 51 1018.0
20260507171512 15 237 14.5 40.2 0.00 0.00 0.00 50 1018.2
20260507171012 15 253 17.7 40.2 0.00 0.00 0.00 50 1018.1
20260507170511 15 271 16.1 35.4 0.00 0.00 0.00 53 1018.2
20260507170010 15 233 14.5 33.8 0.00 0.00 0.00 53 1018.3
20260507165510 15 249 16.1 37.0 0.00 0.00 0.00 56 1018.3
20260507165010 15 250 17.7 38.6 0.00 0.00 0.00 52 1018.3
20260507164507 15 252 17.7 30.6 0.00 0.00 0.00 54 1018.3
20260507164005 14 191 16.1 40.2 0.00 0.00 0.00 56 1018.3
20260507163503 14 260 19.3 40.2 0.00 0.00 0.00 56 1018.3
20260507163002 14 277 17.7 38.6 0.00 0.00 0.00 56 1018.4
20260507162502 14 255 14.5 30.6 0.00 0.00 0.00 58 1018.5
20260507162001 13 259 14.5 33.8 0.00 0.00 0.00 59 1018.5
20260507161604 13 255 19.3 33.8 0.00 0.00 0.00 56 1018.6
20260507161100 13 250 16.1 27.4 0.00 0.00 0.00 59 1018.6
20260507160600 13 244 16.1 37.0 0.00 0.00 0.00 59 1018.7
20260507160059 13 191 11.3 37.0 0.00 0.00 0.00 59 1018.8
20260507155558 13 221 12.9 35.4 0.00 0.00 0.00 59 1018.8
20260507155106 13 272 17.7 29.0 0.00 0.00 0.00 60 1018.7
20260507154559 13 273 12.9 29.0 0.00 0.00 0.00 64 1018.8
20260507154059 12 267 17.7 29.0 0.00 0.00 0.00 65 1018.9
20260507153554 12 244 16.1 30.6 0.00 0.00 0.00 64 1018.9
20260507153053 12 273 14.5 30.6 0.00 0.00 0.00 67 1019.1
20260507152553 12 258 16.1 37.0 0.00 0.00 0.00 66 1019.0
20260507152050 12 254 14.5 37.0 0.00 0.00 0.00 67 1019.0
20260507151549 12 244 20.9 37.0 0.00 0.00 0.00 66 1019.1
20260507151047 12 258 19.3 37.0 0.00 0.00 0.00 67 1019.1
20260507150547 12 247 16.1 25.7 0.00 0.00 0.00 68 1019.1
20260507150045 11 267 14.5 25.7 0.00 0.00 0.00 69 1019.2
20260507145544 11 246 9.7 25.7 0.00 0.00 0.00 69 1019.3
20260507145042 11 259 14.5 24.1 0.00 0.00 0.00 68 1019.2
20260507144543 11 243 14.5 25.7 0.00 0.00 0.00 69 1019.2
20260507144040 11 233 16.1 24.1 0.00 0.00 0.00 69 1019.2
20260507143539 11 244 14.5 27.4 0.00 0.00 0.00 69 1019.2
20260507143038 11 224 17.7 27.4 0.00 0.00 0.00 70 1019.1
20260507142538 11 243 14.5 25.7 0.00 0.00 0.00 70 1019.1
20260507142035 11 239 17.7 25.7 0.00 0.00 0.00 71 1019.1
20260507141533 11 235 12.9 25.7 0.00 0.00 0.00 72 1019.0
20260507141035 11 235 16.1 24.1 0.00 0.00 0.00 72 1019.0
20260507140531 11 217 9.7 20.9 0.00 0.00 0.00 71 1018.9
20260507140032 11 214 12.9 25.7 0.00 0.00 0.00 71 1018.8
20260507135528 11 233 14.5 25.7 0.00 0.00 0.00 71 1018.7
20260507135028 11 217 9.7 16.1 0.00 0.00 0.00 70 1018.8
20260507134528 11 162 8.0 14.5 0.00 0.00 0.00 70 1018.8
20260507134027 11 175 4.8 14.5 0.00 0.00 0.00 68 1018.7
20260507133526 11 162 1.6 12.9 0.00 0.00 0.00 69 1018.7
20260507133026 11 241 0.0 12.9 0.00 0.00 0.00 68 1018.7
20260507132526 11 163 0.0 6.4 0.00 0.00 0.00 69 1018.6
20260507132023 10 168 0.0 8.0 0.00 0.00 0.00 70 1018.7
20260507131528 10 196 4.8 8.0 0.00 0.00 0.00 70 1018.7